[[{"header":{"parameterUnit":"m.s-1","parameterCategory":1,"la1":30.2991,"la2":30.254,"lo1":-89.0895,"lo2":-89.0444,"dy":0.0017,"dx":0.0017,"nx":28,"ny":28,"refTime":"2025-09-09T09:00:00:Z","depth":0,"parameterNumber":2,"parameterNumberName":"U-component_of_WINDS"},"data":[0,0,0,0,0,0,0,0,0,0,0,0,0,0,0,0,0,0,0,0,0,0,0,0,0,0,0,0,0,0,0,0,0,0,0,0,0,0,0,0,0,0,0,0,0,0,0,0,0,0,0,0,0,0,0,0,0,0,-0.1107,-0.1107,0,-0.1094,-0.1094,-0.1094,-0.103,-0.1029,-0.1027,-0.1026,-0.1016,-0.1017,-0.1019,0,0,0,0,0,0,0,0,0,0,0,0,0,-0.1078,-0.1079,-0.1107,-0.1107,-0.1107,-0.1094,-0.1094,-0.1094,-0.103,-0.1029,-0.1027,-0.1025,-0.1016,-0.1017,-0.1019,0,0,0,0,0,0,0,0,0,0,0,0,0,-0.1081,-0.1079,-0.1107,-0.1073,-0.107,-0.1094,-0.1094,-0.1094,-0.1031,-0.1029,-0.1026,-0.1024,-0.1015,-0.1017,-0.1019,-0.1076,0,0,-0.1024,-0.1025,0,0,0,0,0,0,0,0,-0.1081,-0.1082,-0.1078,-0.1076,-0.1072,-0.1061,-0.1081,-0.1088,-0.1031,-0.1046,-0.1026,-0.1023,-0.1033,-0.1034,-0.1036,-0.1075,-0.1075,-0.1024,-0.1026,-0.1026,-0.1027,0,0,0,0,0,0,0,-0.1081,-0.1082,-0.1102,-0.1078,-0.1075,-0.106,-0.1057,-0.1082,-0.1053,-0.1044,-0.104,-0.1039,-0.1031,-0.1035,-0.1036,-0.1075,-0.1024,-0.1026,-0.1027,-0.1028,-0.116,-0.1162,0,0,0,0,0,0,-0.1085,-0.1082,-0.1102,-0.1102,-0.1071,-0.1062,-0.106,-0.1067,-0.1052,-0.1048,-0.1041,-0.1036,-0.1033,-0.1034,-0.1035,-0.1101,-0.1026,-0.1028,-0.1029,-0.1157,-0.116,-0.1163,0,0,0,0,0,0,-0.1084,-0.1087,-0.1103,-0.1091,-0.1092,-0.1065,-0.1074,-0.1068,-0.1072,-0.105,-0.1044,-0.105,-0.1031,-0.1033,-0.1066,-0.11,-0.1029,-0.103,-0.1154,-0.1158,-0.1161,-0.1233,0,0,0,0,0,0,-0.1084,-0.1087,-0.1108,-0.1092,-0.1092,-0.1133,-0.1076,-0.107,-0.1074,-0.1068,-0.1057,-0.1052,-0.1029,-0.1064,-0.1068,-0.1101,-0.1032,-0.1151,-0.1156,-0.116,-0.1227,-0.1238,-0.1248,0,0,0,0,0,-0.1083,-0.113,-0.111,-0.1112,-0.1118,-0.1135,-0.1136,-0.1108,-0.1077,-0.1099,-0.1084,-0.1053,-0.1095,-0.1068,-0.1072,-0.1106,-0.1149,-0.1155,-0.116,-0.1223,-0.1236,-0.1248,0,0,0,0,0,0,-0.1152,-0.1127,-0.1104,-0.1147,-0.1144,-0.1125,-0.115,-0.1123,-0.1129,-0.1123,-0.1088,-0.1087,-0.1125,-0.1118,-0.1088,-0.116,-0.1117,-0.1123,-0.1163,-0.1176,-0.1186,-0.1187,-0.1033,0,0,0,0,0,-0.1172,-0.1188,-0.1165,-0.1205,-0.1204,-0.1178,-0.1184,-0.1163,-0.1158,-0.1157,-0.1145,-0.1143,-0.1156,-0.1165,-0.1176,-0.1226,-0.1223,-0.1251,-0.1261,-0.127,-0.1277,-0.1303,-0.1315,-0.1181,-0.1181,-0.1181,0,0,-0.1214,-0.1202,-0.1214,-0.1218,-0.1213,-0.1231,-0.1177,-0.1198,-0.1211,-0.1161,-0.1191,-0.1182,-0.1178,-0.122,-0.1238,-0.1215,-0.1313,-0.1277,-0.1284,-0.1286,-0.131,-0.1322,-0.1334,-0.1185,-0.1184,-0.1183,0,0,-0.13,-0.1292,-0.1324,-0.132,-0.1312,-0.1294,-0.1302,-0.1287,-0.1279,-0.1308,-0.1271,-0.1286,-0.1309,-0.1307,-0.1309,-0.1393,-0.1365,-0.1397,-0.1452,-0.1478,-0.1488,-0.1498,-0.1528,-0.154,-0.1403,-0.1404,-0.1404,0,-0.1353,-0.1378,-0.1344,-0.1368,-0.1371,-0.1324,-0.1357,-0.1355,-0.1352,-0.1355,-0.133,-0.1357,-0.1351,-0.1391,-0.1412,-0.1415,-0.1423,-0.1399,-0.1489,-0.1498,-0.1506,-0.1535,-0.1547,-0.1408,-0.1407,-0.1407,-0.1407,0,-0.1444,-0.1462,-0.1488,-0.1485,-0.1491,-0.152,-0.1491,-0.1501,-0.1479,-0.1464,-0.1495,-0.1485,-0.1493,-0.15,-0.1479,-0.1539,-0.1525,-0.1495,-0.1451,-0.1524,-0.155,-0.1561,-0.1414,-0.1412,-0.1411,-0.141,0,0,-0.1575,-0.1552,-0.1562,-0.156,-0.1548,-0.1561,-0.1587,-0.1593,-0.1603,-0.1602,-0.1624,-0.1643,-0.1615,-0.1618,-0.1596,-0.1618,-0.1686,-0.1585,-0.1585,-0.1605,-0.1752,-0.1775,-0.1789,-0.1666,-0.1668,-0.167,-0.1752,0,-0.1657,-0.1699,-0.167,-0.1717,-0.1733,-0.1689,-0.1711,-0.1707,-0.1693,-0.1705,-0.169,-0.1705,-0.1666,-0.1668,-0.1688,-0.1674,-0.1715,-0.1667,-0.1687,-0.1689,-0.1691,-0.1802,-0.1827,-0.1906,-0.1762,-0.1764,-0.1765,0,-0.1759,-0.1762,-0.1811,-0.1795,-0.1801,-0.1821,-0.1825,-0.1836,-0.183,-0.1819,-0.1821,-0.1793,-0.1818,-0.1774,-0.1808,-0.1776,-0.1783,-0.1777,-0.1779,-0.1781,-0.1733,-0.1808,-0.193,-0.1942,-0.1781,-0.178,-0.1779,0,-0.1851,-0.1866,-0.1897,-0.1897,-0.1879,-0.1895,-0.1888,-0.188,-0.1885,-0.1888,-0.1892,-0.1898,-0.1902,-0.1908,-0.1882,-0.1852,-0.1921,-0.1874,-0.1913,-0.1914,-0.1931,-0.193,-0.2056,-0.1933,-0.1933,-0.1932,-0.1932,0,-0.1947,-0.1979,-0.1938,-0.1958,-0.1992,-0.1958,-0.1993,-0.1982,-0.1975,-0.1992,-0.1954,-0.1971,-0.1935,-0.1949,-0.1929,-0.1961,-0.1963,-0.1955,-0.195,-0.196,-0.1961,-0.1964,-0.1959,-0.1935,-0.1935,-0.1934,-0.1934,0,-0.2055,-0.2029,-0.206,-0.204,-0.2036,-0.2063,-0.2046,-0.2063,-0.2046,-0.2068,-0.2072,-0.2046,-0.206,-0.2034,-0.2045,-0.2032,-0.2077,-0.2063,-0.2079,-0.2076,-0.2116,-0.2113,-0.225,-0.2266,-0.2132,-0.2133,-0.2134,0,-0.2119,-0.2142,-0.2124,-0.2132,-0.2127,-0.2141,-0.2146,-0.2113,-0.212,-0.2115,-0.2133,-0.2144,-0.215,-0.2175,-0.2158,-0.2166,-0.2152,-0.22,-0.2154,-0.2162,-0.2154,-0.2154,-0.2156,-0.221,-0.2211,-0.2213,-0.2214,0,-0.2235,-0.222,-0.2228,-0.2232,-0.2239,-0.2241,-0.224,-0.2249,-0.2214,-0.2224,-0.2237,-0.2242,-0.2253,-0.2264,-0.2268,-0.2262,-0.2233,-0.2228,-0.2238,-0.2248,-0.2257,-0.2254,-0.2106,-0.2226,-0.2224,-0.2224,-0.2223,-0.2222,-0.2323,-0.2342,-0.2332,-0.2343,-0.2338,-0.2338,-0.2353,-0.2338,-0.2348,-0.2353,-0.2333,-0.2351,-0.2344,-0.2346,-0.2343,-0.2357,-0.2337,-0.235,-0.2354,-0.2358,-0.2365,-0.2254,-0.2358,-0.2357,-0.2357,-0.2357,-0.2357,0,-0.2438,-0.2429,-0.2439,-0.2438,-0.2446,-0.2416,-0.2413,-0.2423,-0.2439,-0.2434,-0.2441,-0.2456,-0.2467,-0.245,-0.2458,-0.2473,-0.2459,-0.2476,-0.2475,-0.2475,-0.2383,-0.2374,-0.2486,-0.2486,-0.2486,-0.2486,-0.2486,-0.2486,-0.2499,-0.2529,-0.2513,-0.2541,-0.2532,-0.2548,-0.2549,-0.2549,-0.2545,-0.2564,-0.2572,-0.256,-0.2551,-0.2558,-0.2566,-0.2561,-0.2566,-0.2588,-0.2578,-0.2494,-0.2481,-0.2469,-0.2461,-0.2589,-0.2589,-0.2669,-0.267,-0.267]},{"header":{"parameterUnit":"m.s-1","parameterCategory":1,"la1":30.2991,"la2":30.254,"lo1":-89.0895,"lo2":-89.0444,"dy":0.0017,"dx":0.0017,"nx":28,"ny":28,"refTime":"2025-09-09T09:00:00:Z","depth":0,"parameterNumber":3,"parameterNumberName":"V-component_of_WINDS"},"data":[0,0,0,0,0,0,0,0,0,0,0,0,0,0,0,0,0,0,0,0,0,0,0,0,0,0,0,0,0,0,0,0,0,0,0,0,0,0,0,0,0,0,0,0,0,0,0,0,0,0,0,0,0,0,0,0,0,0,-1.1633,-1.1634,0,-1.1716,-1.1717,-1.1718,-1.1764,-1.1764,-1.1764,-1.1764,-1.1849,-1.1851,-1.1853,0,0,0,0,0,0,0,0,0,0,0,0,0,-1.1515,-1.1517,-1.1633,-1.1634,-1.1635,-1.1716,-1.1717,-1.1718,-1.1764,-1.1764,-1.1764,-1.1764,-1.1848,-1.1851,-1.1853,0,0,0,0,0,0,0,0,0,0,0,0,0,-1.1579,-1.1518,-1.1633,-1.1668,-1.1672,-1.1715,-1.1717,-1.1718,-1.1764,-1.1764,-1.1764,-1.1764,-1.1847,-1.185,-1.1853,-1.1869,0,0,-1.1863,-1.1865,0,0,0,0,0,0,0,0,-1.1575,-1.1583,-1.1662,-1.1665,-1.167,-1.173,-1.1706,-1.1769,-1.1764,-1.1729,-1.1764,-1.1764,-1.1809,-1.1815,-1.183,-1.1873,-1.1877,-1.1863,-1.1865,-1.1867,-1.1868,0,0,0,0,0,0,0,-1.1571,-1.158,-1.1666,-1.1663,-1.1668,-1.1679,-1.1689,-1.1718,-1.1767,-1.1732,-1.1735,-1.1744,-1.1811,-1.1827,-1.1833,-1.1878,-1.1863,-1.1866,-1.1868,-1.1869,-1.1938,-1.1938,0,0,0,0,0,0,-1.1561,-1.1576,-1.1663,-1.1668,-1.1622,-1.1681,-1.1692,-1.171,-1.1766,-1.1775,-1.1744,-1.1746,-1.1822,-1.1829,-1.1836,-1.1858,-1.1867,-1.187,-1.1872,-1.1938,-1.1938,-1.1938,0,0,0,0,0,0,-1.1558,-1.1568,-1.166,-1.1623,-1.1636,-1.1683,-1.1704,-1.1712,-1.1728,-1.1776,-1.1785,-1.1751,-1.1822,-1.1831,-1.1861,-1.1861,-1.1871,-1.1874,-1.1938,-1.1938,-1.1938,-1.1902,0,0,0,0,0,0,-1.1554,-1.1567,-1.1573,-1.1623,-1.1638,-1.1683,-1.1704,-1.1713,-1.1733,-1.1737,-1.1785,-1.1793,-1.1823,-1.1855,-1.1864,-1.1866,-1.1877,-1.1938,-1.1938,-1.1938,-1.1903,-1.19,-1.1898,0,0,0,0,0,-1.155,-1.156,-1.1573,-1.1584,-1.1646,-1.1683,-1.1691,-1.1725,-1.1733,-1.174,-1.1771,-1.1792,-1.186,-1.1858,-1.1868,-1.1871,-1.1938,-1.1938,-1.1938,-1.1904,-1.1901,-1.1898,0,0,0,0,0,0,-1.1509,-1.1567,-1.1583,-1.1609,-1.1641,-1.1691,-1.17,-1.1721,-1.1751,-1.1753,-1.1794,-1.1804,-1.183,-1.1853,-1.185,-1.1889,-1.1901,-1.1903,-1.1873,-1.187,-1.1867,-1.1861,-1.1879,0,0,0,0,0,-1.1503,-1.1528,-1.1577,-1.1596,-1.1611,-1.1653,-1.167,-1.1693,-1.1728,-1.1741,-1.1775,-1.1807,-1.1836,-1.1855,-1.1884,-1.1907,-1.1918,-1.1914,-1.1911,-1.1909,-1.191,-1.1924,-1.1923,-1.1937,-1.1937,-1.1937,0,0,-1.1491,-1.1526,-1.1539,-1.1588,-1.1616,-1.164,-1.1664,-1.1689,-1.1708,-1.1745,-1.1775,-1.18,-1.184,-1.1866,-1.1879,-1.1886,-1.1909,-1.1909,-1.1907,-1.1909,-1.1924,-1.1922,-1.1921,-1.1937,-1.1937,-1.1937,0,0,-1.1481,-1.151,-1.1528,-1.1555,-1.1597,-1.1625,-1.1629,-1.1676,-1.1694,-1.1725,-1.1753,-1.1776,-1.1825,-1.1852,-1.1872,-1.1873,-1.1893,-1.1881,-1.1868,-1.1881,-1.188,-1.1879,-1.1879,-1.1879,-1.1882,-1.1882,-1.1882,0,-1.1461,-1.1499,-1.1535,-1.1559,-1.158,-1.1615,-1.1634,-1.1658,-1.1707,-1.1721,-1.1728,-1.179,-1.182,-1.1852,-1.1852,-1.1868,-1.1874,-1.1876,-1.1877,-1.1877,-1.1877,-1.1877,-1.1877,-1.188,-1.1881,-1.1881,-1.1881,0,-1.1472,-1.1498,-1.1508,-1.1554,-1.1576,-1.1597,-1.1636,-1.1654,-1.1676,-1.1703,-1.1733,-1.1769,-1.1807,-1.1816,-1.1837,-1.1852,-1.1855,-1.187,-1.1883,-1.1873,-1.1874,-1.1875,-1.1878,-1.1878,-1.1879,-1.1879,0,0,-1.1439,-1.1504,-1.1507,-1.1529,-1.1577,-1.1598,-1.162,-1.1657,-1.1671,-1.1704,-1.1724,-1.1764,-1.1778,-1.1801,-1.1825,-1.1837,-1.1835,-1.185,-1.1851,-1.1846,-1.1853,-1.1842,-1.1841,-1.1849,-1.1849,-1.1849,-1.185,0,-1.1436,-1.1478,-1.1511,-1.1541,-1.1566,-1.16,-1.1619,-1.1651,-1.1677,-1.1702,-1.1731,-1.1759,-1.1774,-1.1788,-1.1801,-1.1832,-1.1837,-1.1833,-1.1868,-1.1869,-1.1856,-1.1842,-1.183,-1.1829,-1.185,-1.185,-1.1851,0,-1.1438,-1.1469,-1.1501,-1.1547,-1.1558,-1.1575,-1.1611,-1.1634,-1.1671,-1.1689,-1.1714,-1.174,-1.1766,-1.1776,-1.1812,-1.1809,-1.1825,-1.1843,-1.1843,-1.1848,-1.1858,-1.1845,-1.1829,-1.1829,-1.1852,-1.1852,-1.1851,0,-1.141,-1.146,-1.1485,-1.1502,-1.1556,-1.1568,-1.1591,-1.1628,-1.1647,-1.1679,-1.1692,-1.1726,-1.1744,-1.177,-1.1804,-1.1809,-1.1837,-1.185,-1.1852,-1.1851,-1.1856,-1.1855,-1.1842,-1.1867,-1.1867,-1.1867,-1.1867,0,-1.1403,-1.1421,-1.1473,-1.1489,-1.1511,-1.1549,-1.1569,-1.1595,-1.1627,-1.1649,-1.1681,-1.17,-1.1744,-1.1769,-1.1796,-1.1821,-1.183,-1.1845,-1.1852,-1.1842,-1.184,-1.1853,-1.1853,-1.1867,-1.1867,-1.1867,-1.1867,0,-1.1375,-1.1411,-1.1441,-1.1489,-1.1502,-1.1516,-1.1557,-1.1574,-1.1602,-1.1628,-1.1637,-1.168,-1.1711,-1.1748,-1.1791,-1.1809,-1.1832,-1.1842,-1.1819,-1.1823,-1.1823,-1.1822,-1.1817,-1.1818,-1.1843,-1.1842,-1.1842,0,-1.1368,-1.1382,-1.1432,-1.1449,-1.1471,-1.1497,-1.1518,-1.1556,-1.1576,-1.1619,-1.163,-1.1663,-1.1692,-1.174,-1.1775,-1.1808,-1.1819,-1.1815,-1.1825,-1.1814,-1.1819,-1.1817,-1.1819,-1.1813,-1.1812,-1.1812,-1.1811,0,-1.1351,-1.1368,-1.1396,-1.143,-1.1453,-1.1482,-1.1512,-1.1524,-1.1568,-1.1589,-1.1621,-1.1643,-1.1687,-1.1719,-1.1757,-1.1781,-1.1803,-1.1808,-1.1811,-1.18,-1.1786,-1.1793,-1.1812,-1.1808,-1.1809,-1.1809,-1.1809,-1.1809,-1.1333,-1.1348,-1.1385,-1.1415,-1.1442,-1.1469,-1.1487,-1.1517,-1.1544,-1.1583,-1.1604,-1.1635,-1.1672,-1.1725,-1.1748,-1.1773,-1.1781,-1.1784,-1.1785,-1.1785,-1.1782,-1.1782,-1.178,-1.178,-1.178,-1.178,-1.1781,0,-1.1318,-1.1344,-1.1371,-1.1412,-1.1436,-1.1455,-1.1489,-1.1508,-1.1535,-1.1567,-1.1595,-1.1631,-1.1663,-1.1701,-1.1736,-1.1748,-1.176,-1.1756,-1.1755,-1.176,-1.1773,-1.1767,-1.1746,-1.1746,-1.1746,-1.1746,-1.1746,-1.1746,-1.1313,-1.1338,-1.136,-1.1399,-1.1425,-1.1456,-1.1474,-1.1499,-1.1525,-1.1565,-1.1591,-1.1616,-1.165,-1.1688,-1.1718,-1.1728,-1.1739,-1.1732,-1.1746,-1.1757,-1.176,-1.1762,-1.1757,-1.1735,-1.1735,-1.1731,-1.1731,-1.1731]}]]